Regional Weather Roundup
Issued by NWS

Home | Current Version | Previous Version | Text Only | Print | Product List | Glossary On
Versions: 1 2 3 4 5 6 7 8 9 10 11 12 13 14 15 16 17 18 19 20 21 22 23 24 25 26 27 28 29 30 31 32 33 34 35 36 37 38 39 40 41 42 43 44 45 46 47 48 49 50
000
ASUS43 KMKX 081800
RWRWI

WISCONSIN REGIONAL WEATHER ROUNDUP
NATIONAL WEATHER SERVICE MILWAUKEE/SULLIVAN WI
1200 PM CST THU DEC 08 2016

NOTE: "FAIR" INDICATES FEW OR NO CLOUDS BELOW 12,000 FEET WITH NO
SIGNIFICANT WEATHER AND/OR OBSTRUCTIONS TO VISIBILITY.

WIZ001-002-006>008-014>016-023>028-081900-
NORTHWEST WISCONSIN

CITY           SKY/WX    TMP DP  RH WIND       PRES   REMARKS
SUPERIOR ARPT  CLOUDY    25  16  67 NW17G25   30.29R WCI  12
ASHLAND        CLOUDY    27  20  75 NW13      30.23R WCI  16
6HR MIN TEMP:  21; 6HR MAX TEMP:  28; 6HR PCP: TRACE;

HAYWARD        CLOUDY    24  15  68 NW7G20    30.24R WCI  16
6HR MIN TEMP:  19; 6HR MAX TEMP:  24; 6HR PCP: TRACE;

SIREN          CLOUDY    24  15  70 NW12G17   30.30R WCI  12
CUMBERLAND     CLOUDY    23  14  68 NW14      30.26R WCI  11
RICE LAKE      CLOUDY    24  16  70 NW12G17   30.28R WCI  13
CHETEK         CLOUDY    23  16  73 NW8       30.27R WCI  14
LADYSMITH      CLOUDY    24  17  73 NW12      30.23R WCI  13
EAU CLAIRE     NOT AVBL
MENOMONIE      CLOUDY    25  16  67 NW13      30.29S WCI  14
NEW RICHMOND   FLURRIES  24  16  71 NW18      30.31S WCI  10
OSCEOLA        CLOUDY    25  17  73 NW10      30.36R WCI  15
$$

WIZ003>005-009-010-017-018-081900-
NORTH CENTRAL WISCONSIN

CITY           SKY/WX    TMP DP  RH WIND       PRES   REMARKS
MANITOWISH WTR LGT SNOW  24  22  91 NW10      30.11R WCI  13
ARBOR VITAE    CLOUDY    26  20  78 NW9       30.10R WCI  17
WOODRUFF       CLOUDY    26  20  78 NW9       30.10R WCI  17
RHINELANDER    CLOUDY    26  18  71 NW10      30.10R WCI  16
6HR MIN TEMP:  18; 6HR MAX TEMP:  26; 6HR PCP: TRACE;

EAGLE RIVER    FLURRIES  26  19  73 W12G17    30.07R WCI  15
LAND O LAKES   CLOUDY    26  21  83 N14       30.08R WCI  14
PHILLIPS       CLOUDY    23  17  76 NW12      30.15R WCI  12
TOMAHAWK       FLURRIES  24  17  73 NW13G18   30.14R WCI  12
MEDFORD        CLOUDY    22  16  76 NW12      30.17R WCI  11
MERRILL        CLOUDY    25  16  68 NW15G23   30.15R WCI  13
$$

WIZ029-030-035-036-043>047-081900-
CENTRAL WISCONSIN

CITY           SKY/WX    TMP DP  RH WIND       PRES   REMARKS
WAUSAU         CLOUDY    25  15  66 NW12      30.15R WCI  14
6HR MIN TEMP:  15; 6HR MAX TEMP:  25; 6HR PCP: TRACE;

MOSINEE        CLOUDY    25  19  80 NW15G22   30.17R WCI  12
MARSHFIELD     CLOUDY    23  16  74 NW16      30.19R WCI  10
6HR MIN TEMP:  14; 6HR MAX TEMP:  23; 6HR PCP: TRACE;

STEVENS POINT  CLOUDY    22  15  75 W9G17     30.18S WCI  12
WAUPACA        MOSUNNY   27  18  68 NW16G23   30.18R WCI  15
WAUTOMA        FLURRIES  23  17  78 W15       30.22R WCI  10
6HR MIN TEMP:  15; 6HR MAX TEMP:  23; 6HR PCP:  0.01;

WISC RAPIDS    CLOUDY    24  17  74 NW15      30.22R WCI  11
6HR MIN TEMP:  15; 6HR MAX TEMP:  24; 6HR PCP: TRACE;

CAMP DOUGLAS   NOT AVBL
$$

WIZ011>013-019>022-031-037>040-048>050-081900-
NORTHEAST WISCONSIN

CITY           SKY/WX    TMP DP  RH WIND       PRES   REMARKS
ANTIGO         CLOUDY    25  17  73 NW15G22   30.10R WCI  12
SHAWANO        CLOUDY    32  19  58 NW14G23   30.13S WCI  22
OCONTO         PTSUNNY   31  17  56 NW13G20   30.10R WCI  21
STURGEON BAY   MOSUNNY   31  20  63 W20G25    30.06F WCI  19
6HR MIN TEMP:  20; 6HR MAX TEMP:  31;

GREEN BAY      FLURRIES  31  21  66 W20G29    30.12S WCI  19
6HR MIN TEMP:  20; 6HR MAX TEMP:  31; 6HR PCP: TRACE;

MANITOWOC      NOT AVBL
APPLETON       PTSUNNY   27  16  63 W17       30.13S WCI  14
CLINTONVILLE   PTSUNNY   28  18  64 NW21      30.14S WCI  15
OSHKOSH        MOSUNNY   25  17  72 W18G26    30.16R WCI  11
6HR MIN TEMP:  17; 6HR MAX TEMP:  26; 6HR PCP: TRACE;

$$

WIZ032>034-041-042-053>061-081900-
SOUTHWEST WISCONSIN

CITY           SKY/WX    TMP DP  RH WIND       PRES   REMARKS
LA CROSSE      CLOUDY    25  16  68 NW17      30.32R WCI  12
6HR MIN TEMP:  19; 6HR MAX TEMP:  25; 6HR PCP: TRACE;

SPARTA         CLOUDY    23  17  77 W15       30.29R WCI  10
VIROQUA        CLOUDY    20  16  82 W13G18    30.27R WCI   8
BOSCOBEL       CLOUDY    23  14  68 W15G21    30.34S WCI  10
6HR MIN TEMP:  16; 6HR MAX TEMP:  23; 6HR PCP: TRACE;

PRAIRIE DU CHI FLURRIES  23  14  68 W16       30.35S WCI  10
PLATTEVILLE    CLOUDY    20  15  81 W17       30.32R WCI   6
$$

WIZ056-057-062-063-064-067-068-081900-
SOUTH CENTRAL WISCONSIN

CITY           SKY/WX    TMP DP  RH WIND       PRES   REMARKS
REEDSBURG      FLURRIES  21  15  78 W12G18    30.26S WCI   9
BARABOO/DELLS  FLURRIES  21  15  76 W12G17    30.24S WCI   9
LONE ROCK      NOT AVBL
MINERAL POINT  FLURRIES  23  18  80 W16       30.27S WCI  10
MADISON        CLOUDY    21  13  71 W13G22    30.25S WCI   9
6HR MIN TEMP:  14; 6HR MAX TEMP:  21; 6HR PCP: TRACE;

MIDDLETON      CLOUDY    23  16  73 W12G20    30.26R WCI  12
WATERTOWN      CLOUDY    21  15  76 W16G23    30.22S WCI   7
MONROE         CLOUDY    21  14  73 W16G29    30.27R WCI   7
JANESVILLE     CLOUDY    21  14  73 W15G21    30.27S WCI   8
$$

WIZ051-052-058>065-066-070>072-081900-
SOUTHEAST WISCONSIN

CITY           SKY/WX    TMP DP  RH WIND       PRES   REMARKS
MILWAUKEE      FLURRIES  24  11  57 W18G31    30.20S WCI  10
6HR MIN TEMP:  19; 6HR MAX TEMP:  24; 6HR PCP: TRACE;

WAUKESHA       CLOUDY    19  12  73 W21G29    30.21R WCI   3
MILWAUKEE/TIMM NOT AVBL
RACINE         PTSUNNY   22  11  62 W21G30    30.22R WCI   6
6HR MIN TEMP:  19; 6HR MAX TEMP:  23; 6HR PCP: TRACE;

BURLINGTON     CLOUDY    26  19  74 W18       30.23F WCI  12
KENOSHA        PTSUNNY   21  12  68 W23       30.22S WCI   5
6HR MIN TEMP:  17; 6HR MAX TEMP:  23; 6HR PCP: TRACE;

FOND DU LAC    PTSUNNY   25  15  66 W18G30    30.17S WCI  11
6HR MIN TEMP:  18; 6HR MAX TEMP:  25; 6HR PCP: TRACE;

SHEBOYGAN      PTSUNNY   26  17  68 W18G32    30.14R WCI  13
6HR MIN TEMP:  18; 6HR MAX TEMP:  26; 6HR PCP: TRACE;

WEST BEND      NOT AVBL
JUNEAU         CLOUDY    21  14  75 W13G21    30.21S WCI   8
$$

LSZ147-162-081900-
LAKE SUPERIOR

STATION/POSITION TIME  TEMP    WIND        PRES    WAVE
                       AIR SEA DIR/SP/G            HT/PER
                 (UTC) (F)     (DEG/KT/KT) (MB)    (FT/S)
DEVILS ISLAND    1700   28     330/ 21/ 25 1023.9R
PORT WING        1730   27     310/ 16/ 21 1024.4S
SAXON HARBOR     1740   30     330/ 17/ 26 1022.4R
$$

LMZ867-665-643>646-081900-
LAKE MICHIGAN

STATION/POSITION TIME  TEMP    WIND        PRES    WAVE
                       AIR SEA DIR/SP/G            HT/PER
                 (UTC) (F)     (DEG/KT/KT) (MB)    (FT/S)
CHAMBERS ISLAND  1740   32     280/  7/ 15 1017.6R
NORTHPORT PIER   1740   32     310/ 18/ 24 1016.9S
SISTER BAY       1721   33     330/ 21/ 24   N/A
ALGOMA LAKESHORE 1621          300/ 12/ 18   N/A
KEWAUNEE LAKESHO 1730   27     290/ 16/ 21 1018.4R
SHEBOYGAN LAKESH 1700   23     280/ 21/ 28 1020.9F
PORT WASHINGTON  1740   24     300/ 13/ 23 1022.7R
MILWAUKEE LAKESH 1730   22     280/ 19/ 24   N/A
KENOSHA   LAKESH 1700   22     270/ 22/ 29 1022.7
$$

TC  - TEMPERATURE IN CELSIUS
VSB - VISIBILITY IN STATUTE MILES
WCI - WIND CHILL INDEX
HX  - HEAT INDEX





USA.gov is the U.S. government's official web portal to all federal, state and local government web resources and services.